Hourly Data Report for February 21, 2020

TORONTO CITY
ONTARIO
Current Station Operator: ECCC - MSC

43°40'00.000" N
79°24'00.000" W
112.50 m
6158355
71508
XTO

Download Data

Hourly Data (February 2020)
Hourly Data Report for February 21, 2020
TIME
LST
Temp Definition
°C
Dew Point Definition
°C
Rel Hum Definition
%
Precip. Amount Definition
mm

Wind Dir Definition
10's deg

Wind Spd Definition
km/h
Visibility Definition
km
Stn Press Definition
kPa
Hmdx Definition


Wind Chill Definition


Weather Definition


00:00 -8.9 -14.5 64 0.0       101.98     LegendNANA
01:00 -9.1 -13.8 68 0.0       101.94     LegendNANA
02:00 -8.6 -13.4 69 0.0       101.90     LegendNANA
03:00 -8.2 -13.2 67 0.0       101.86     LegendNANA
04:00 -8.2 -13.5 65 0.0       101.80     LegendNANA
05:00 -8.3 -13.7 65 0.0       101.80     LegendNANA
06:00 -8.0 -13.9 62 0.0       101.77     LegendNANA
07:00 -8.2 -13.8 64 0.0       101.74     LegendNANA
08:00 -7.9 -13.2 65 0.0       101.74     LegendNANA
09:00 -6.5 -12.6 62 0.0       101.74     LegendNANA
10:00 -4.4 -12.3 54 0.0       101.71     LegendNANA
11:00 -2.8 -13.5 44 0.0       101.67     LegendNANA
12:00 -1.5 -14.4 37 0.0       101.65     LegendNANA
13:00 -0.3 -14.3 34 0.0       101.55     LegendNANA
14:00 -0.2 -14.8 32 0.2       101.44     LegendNANA
15:00 0.6 -13.9 33 0.0       101.34     LegendNANA
16:00 0.9 -14.6 30 0.0       101.23     LegendNANA
17:00 0.2 -10.7 44 0.0       101.14     LegendNANA
18:00 -0.3 -9.8 49 0.0       101.10     LegendNANA
19:00 -0.9 -7.7 60 0.0       101.10     LegendNANA
20:00 -1.5 -8.1 61 0.0       101.00     LegendNANA
21:00 -1.5 -9.2 56 0.0       100.92     LegendNANA
22:00 -1.0 -9.4 53 0.0       100.87     LegendNANA
23:00 -0.8 -10.4 48 0.0       100.83     LegendNANA

Notes on Data Quality.

Legend

  • E = Estimated
  • M = Missing
  • NA = Not Available*
  • [empty] = Indicates an unobserved value
Date modified: